Terug naar catalogus

ANISCSAT-1

ActiefAmateurradioSSO
NORAD 66671·PAYLOAD·🇭🇺 Hungary

Gelanceerd Nov 28, 2025 vanaf Vandenberg Space Force Base

Loading…

Volgende Passages (komende 24 uur)

TLE

VersSource: Space-Track

Epoch: Sep 13, 2026, 17:17 UTC

1 66671U 25276F   26256.72034377  .00007227  00000-0  30857-3 0  9996
2 66671  97.4136 329.3308 0006607  59.2602 300.9285 15.23166854 43903

Volg ANISCSAT-1 in realtime met AllMySat

Download on the App Store